Terug naar catalogus

STARLINK-11746

ActiefCommunicatieVLEO
NORAD 64372·PAYLOAD·🇺🇸 United States

Gelanceerd Jun 13, 2025 vanaf Cape Canaveral Space Force Station

Loading…

Volgende Passages (komende 24 uur)

TLE

VersSource: CelesTrak SupGP

Epoch: Sep 15, 2026, 02:24 UTC

1 64372C 25127C   26258.10048611 -.00111890  00000+0 -86890-3 0  2586
2 64372  43.0011  22.6641 0001791 260.0104 100.0230 15.70897046    19

Volg STARLINK-11746 in realtime met AllMySat

Download on the App Store